EW1895 Weather Reports


Display with metric or nautical units.
time (UTC)temp
F
wind
direction
speed
MPH
gust
MPH
rain 1hr
in
rain 24hr
in
rain mn
in
humidity
%
barometer
mb
20260902204543 92 327 3.0 11.0 0.00 0.00 0.00 62 1016.6
20260902203040 96 5 0.0 3.0 0.00 0.00 0.00 53 1017.2
20260902201541 97 346 0.0 1.0 0.00 0.00 0.00 52 1017.0
20260902200040 98 74 0.0 6.0 0.00 0.00 0.00 51 1017.3
20260902194542 98 132 0.0 1.0 0.00 0.00 0.00 50 1017.1
20260902193040 98 146 0.0 2.0 0.00 0.00 0.00 52 1016.8
20260902191543 98 105 0.0 1.0 0.00 0.00 0.00 52 1016.9
20260902190041 98 275 0.0 3.0 0.00 0.00 0.00 50 1017.1
20260902184536 99 167 0.0 2.0 0.00 0.00 0.00 50 1017.1
20260902183033 98 103 0.0 2.0 0.00 0.00 0.00 51 1017.3
20260902181531 97 113 0.0 1.0 0.00 0.00 0.00 51 1017.4
20260902180030 97 175 0.0 5.0 0.00 0.00 0.00 51 1017.5
20260902174530 97 346 0.0 1.0 0.00 0.00 0.00 51 1017.7
20260902173029 97 157 0.0 4.0 0.00 0.00 0.00 51 1017.7
20260902171529 97 327 0.0 0.0 0.00 0.00 0.00 53 1017.6
20260902170025 97 336 0.0 0.0 0.00 0.00 0.00 52 1017.7
20260902164522 96 93 0.0 0.0 0.00 0.00 0.00 54 1017.7
20260902163025 96 299 0.0 0.0 0.00 0.00 0.00 51 1017.8
20260902161519 96 298 0.0 0.0 0.00 0.00 0.00 52 1017.8
20260902160017 95 298 0.0 0.0 0.00 0.00 0.00 52 1017.9
20260902154516 95 360 0.0 0.0 0.00 0.00 0.00 54 1018.0
20260902153012 93 319 0.0 0.0 0.00 0.00 0.00 59 1018.0
20260902151517 93 319 0.0 0.0 0.00 0.00 0.00 59 1018.1
20260902150010 92 253 0.0 0.0 0.00 0.00 0.00 59 1018.2
20260902144510 90 253 0.0 0.0 0.00 0.00 0.00 62 1018.1
20260902143103 90 340 0.0 0.0 0.00 0.00 0.00 65 1018.2
20260902141559 89 340 0.0 0.0 0.00 0.00 0.00 65 1018.2
20260902140057 87 340 0.0 0.0 0.00 0.00 0.00 68 1017.9
20260902134549 85 340 0.0 0.0 0.00 0.00 0.00 72 1017.9
20260902133045 82 340 0.0 0.0 0.00 0.00 0.00 81 1017.8
20260902131542 79 340 0.0 0.0 0.00 0.00 0.00 84 1017.7
20260902130039 77 340 0.0 0.0 0.00 0.00 0.00 88 1017.7
20260902124540 76 340 0.0 0.0 0.00 0.00 0.00 89 1017.6
20260902123035 75 340 0.0 0.0 0.00 0.00 0.00 91 1017.6
20260902121536 74 340 0.0 0.0 0.00 0.00 0.00 92 1017.7
20260902120034 73 340 0.0 0.0 0.00 0.00 0.00 92 1017.7
20260902114535 73 340 0.0 0.0 0.00 0.00 0.00 93 1017.7
20260902113033 73 340 0.0 0.0 0.00 0.00 0.00 92 1017.7
20260902111532 73 340 0.0 0.0 0.00 0.00 0.00 92 1017.7
20260902110031 74 340 0.0 0.0 0.00 0.00 0.00 92 1017.6
20260902104538 74 340 0.0 0.0 0.00 0.00 0.00 92 1017.4
20260902103028 74 340 0.0 0.0 0.00 0.00 0.00 92 1017.4
20260902101535 74 340 0.0 0.0 0.00 0.00 0.00 92 1017.3
20260902100027 74 340 0.0 0.0 0.00 0.00 0.00 92 1017.1
20260902094525 74 340 0.0 0.0 0.00 0.00 0.00 92 1017.0
20260902093034 74 340 0.0 0.0 0.00 0.00 0.00 92 1016.9
20260902091526 74 340 0.0 0.0 0.00 0.00 0.00 92 1016.9
20260902090025 74 340 0.0 0.0 0.00 0.00 0.00 92 1016.8
20260902084524 74 340 0.0 0.0 0.00 0.00 0.00 92 1017.0
20260902083023 74 340 0.0 0.0 0.00 0.00 0.00 92 1017.0
20260902081520 74 340 0.0 0.0 0.00 0.00 0.00 91 1017.1
20260902080019 74 340 0.0 0.0 0.00 0.00 0.00 90 1016.7
20260902074518 74 340 0.0 0.0 0.00 0.00 0.00 90 1016.6
20260902073016 75 340 0.0 0.0 0.00 0.00 0.00 88 1016.7
20260902071516 75 340 0.0 0.0 0.00 0.00 0.00 88 1016.7
20260902070015 76 340 0.0 0.0 0.00 0.00 0.00 88 1016.6
20260902064514 76 340 0.0 0.0 0.00 0.00 0.00 88 1016.5
20260902063012 76 340 0.0 0.0 0.00 0.00 0.00 89 1016.5
20260902061520 75 340 0.0 0.0 0.00 0.00 0.00 90 1016.6
20260902060010 74 340 0.0 0.0 0.00 0.00 0.00 91 1016.6
20260902054509 75 340 0.0 0.0 0.00 0.00 0.00 90 1016.5
20260902053009 75 340 0.0 0.0 0.00 0.00 0.00 89 1016.4
20260902051509 75 340 0.0 0.0 0.00 0.00 0.00 89 1016.4
20260902050010 76 340 0.0 0.0 0.00 0.00 0.00 88 1016.5
20260902044508 76 340 0.0 0.0 0.00 0.00 0.00 88 1016.5
20260902043007 76 340 0.0 0.0 0.00 0.00 0.00 87 1016.4
20260902041508 77 340 0.0 0.0 0.00 0.00 0.00 86 1016.2
20260902040008 77 340 0.0 0.0 0.00 0.00 0.00 86 1016.2
20260902034507 77 340 0.0 0.0 0.00 0.00 0.00 85 1016.0
20260902033010 77 340 0.0 0.0 0.00 0.00 0.00 84 1015.7
20260902031506 78 340 0.0 0.0 0.00 0.00 0.00 84 1015.7
20260902030006 78 340 0.0 0.0 0.00 0.00 0.00 83 1015.8
20260902024506 79 340 0.0 0.0 0.00 0.00 0.00 83 1015.7
20260902023006 79 340 0.0 0.0 0.00 0.00 0.00 82 1015.8
20260902021512 79 340 0.0 0.0 0.00 0.00 0.00 82 1015.8
20260902020006 79 340 0.0 0.0 0.00 0.00 0.00 81 1015.7
20260902014504 79 340 0.0 0.0 0.00 0.00 0.00 81 1015.6
20260902013004 80 340 0.0 0.0 0.00 0.00 0.00 83 1015.3
20260902011505 80 340 0.0 0.0 0.00 0.00 0.00 82 1015.1
20260902010010 81 340 0.0 0.0 0.00 0.00 0.00 81 1014.9
20260902004512 82 340 0.0 0.0 0.00 0.00 0.00 79 1014.8
20260902003004 83 340 0.0 0.0 0.00 0.00 0.00 78 1014.6
20260902001503 83 340 0.0 0.0 0.00 0.00 0.00 78 1014.6
20260902000003 84 340 0.0 0.0 0.00 0.00 0.00 79 1014.6
20260901234502 85 340 0.0 0.0 0.00 0.00 0.00 77 1014.7
20260901233002 86 340 0.0 0.0 0.00 0.00 0.00 75 1014.6
20260901231502 87 340 0.0 0.0 0.00 0.00 0.00 71 1014.6
20260901230101 88 340 0.0 0.0 0.00 0.00 0.00 67 1014.7
20260901224601 89 340 0.0 0.0 0.00 0.00 0.00 65 1014.9
20260901223059 90 340 0.0 0.0 0.00 0.00 0.00 63 1014.9
20260901221600 91 340 0.0 0.0 0.00 0.00 0.00 62 1015.0
20260901214559 92 340 0.0 0.0 0.00 0.00 0.00 61 1015.1
20260901213058 92 340 0.0 0.0 0.00 0.00 0.00 55 1015.2
20260901211559 93 340 0.0 0.0 0.00 0.00 0.00 60 1015.1
20260901210056 94 340 0.0 0.0 0.00 0.00 0.00 56 1015.2